[[{"header":{"parameterUnit":"m.s-1","parameterCategory":1,"la1":30.2991,"la2":30.254,"lo1":-89.0895,"lo2":-89.0444,"dy":0.0017,"dx":0.0017,"nx":28,"ny":28,"refTime":"2024-10-14T09:00:00:Z","depth":0,"parameterNumber":2,"parameterNumberName":"U-component_of_WINDS"},"data":[0,0,0,0,0,0,0,0,0,0,0,0,0,0,0,0,0,0,0,0,0,0,0,0,0,0,0,0,0,0,0,0,0,0,0,0,0,0,0,0,0,0,0,0,0,0,0,0,0,0,0,0,0,0,0,0,0,0,2.6999,2.7,0,2.7107,2.7109,2.711,2.7066,2.7063,2.7061,2.7058,2.7173,2.7178,2.7184,0,0,0,0,0,0,0,0,0,0,0,0,0,2.6759,2.6764,2.6999,2.7,2.7002,2.7107,2.7109,2.711,2.7066,2.7063,2.706,2.7057,2.7171,2.7178,2.7184,0,0,0,0,0,0,0,0,0,0,0,0,0,2.6865,2.6766,2.6999,2.6992,2.6993,2.7107,2.7109,2.7111,2.7067,2.7063,2.7059,2.7056,2.7169,2.7177,2.7185,2.7313,0,0,2.721,2.7213,0,0,0,0,0,0,0,0,2.6859,2.6874,2.6992,2.6993,2.6994,2.7069,2.7066,2.7178,2.7068,2.7039,2.7058,2.7054,2.7142,2.7152,2.7181,2.7318,2.7323,2.7211,2.7216,2.7219,2.7221,0,0,0,0,0,0,0,2.6852,2.6869,2.7042,2.6994,2.6995,2.6986,2.6997,2.7087,2.7111,2.7041,2.7038,2.7052,2.7142,2.7173,2.7183,2.7325,2.721,2.7218,2.7223,2.7226,2.7575,2.7579,0,0,0,0,0,0,2.6844,2.6863,2.7038,2.7045,2.6916,2.6993,2.7005,2.7049,2.711,2.7115,2.7055,2.7049,2.7161,2.7174,2.7187,2.7342,2.7219,2.7227,2.7231,2.7571,2.7576,2.7581,0,0,0,0,0,0,2.6839,2.686,2.7034,2.6954,2.6975,2.7002,2.7051,2.7053,2.7084,2.712,2.7124,2.7082,2.7158,2.7176,2.7282,2.7345,2.723,2.7238,2.7566,2.7573,2.7579,2.7652,0,0,0,0,0,0,2.6832,2.6858,2.6906,2.6955,2.698,2.7126,2.7055,2.7058,2.7098,2.7092,2.7147,2.7152,2.7157,2.727,2.729,2.7354,2.7244,2.756,2.7569,2.7577,2.7644,2.766,2.7674,0,0,0,0,0,2.6824,2.6922,2.6908,2.6929,2.7039,2.7129,2.7144,2.7146,2.7103,2.7152,2.7176,2.715,2.7335,2.7281,2.7304,2.7371,2.7556,2.7566,2.7576,2.7637,2.7657,2.7674,0,0,0,0,0,0,2.6879,2.6928,2.6913,2.703,2.7076,2.7122,2.7183,2.7166,2.7226,2.7218,2.7219,2.7232,2.7342,2.7368,2.7307,2.75,2.744,2.7454,2.7479,2.7498,2.7513,2.7504,2.7251,0,0,0,0,0,2.6905,2.6973,2.7013,2.7112,2.7136,2.7156,2.7195,2.7193,2.7241,2.7261,2.7292,2.7341,2.741,2.7455,2.7521,2.7648,2.7661,2.7706,2.7721,2.7733,2.7746,2.7817,2.7838,2.7613,2.7613,2.7613,0,0,2.6959,2.6994,2.7037,2.7124,2.716,2.7232,2.7172,2.7251,2.7305,2.7273,2.7375,2.7401,2.7455,2.7573,2.7627,2.7598,2.7811,2.7746,2.7755,2.7761,2.783,2.7851,2.787,2.762,2.7619,2.7618,0,0,2.7094,2.7127,2.7215,2.7252,2.7306,2.7319,2.7341,2.739,2.7405,2.7508,2.7486,2.7552,2.7671,2.7711,2.7747,2.7903,2.7883,2.7924,2.8002,2.8072,2.809,2.8106,2.8162,2.8182,2.7937,2.7937,2.7937,0,2.7155,2.7261,2.7262,2.7343,2.7383,2.7358,2.7447,2.7484,2.7557,2.7587,2.7553,2.7703,2.7738,2.7866,2.7905,2.7935,2.796,2.7917,2.8087,2.8103,2.8118,2.8172,2.8193,2.7942,2.7941,2.7941,2.794,0,2.7334,2.7409,2.7473,2.7544,2.7592,2.7677,2.7692,2.7741,2.7736,2.7754,2.7861,2.7902,2.7977,2.8007,2.8003,2.8136,2.8117,2.8086,2.8025,2.8144,2.8194,2.8215,2.7949,2.7947,2.7945,2.7944,0,0,2.7504,2.7577,2.7601,2.7634,2.7694,2.7753,2.7838,2.7911,2.7953,2.8006,2.8079,2.8182,2.8154,2.8195,2.8196,2.8257,2.8379,2.8219,2.822,2.8248,2.8531,2.8554,2.8577,2.8367,2.8371,2.8374,2.8526,0,2.7645,2.7793,2.7798,2.7934,2.8004,2.7983,2.8058,2.8104,2.8124,2.8188,2.8211,2.8284,2.8241,2.8266,2.8326,2.8352,2.8436,2.8341,2.8436,2.844,2.8422,2.8604,2.8628,2.8769,2.8546,2.8549,2.8552,0,2.7827,2.7886,2.8029,2.8082,2.8111,2.8178,2.8247,2.8308,2.8361,2.8371,2.8419,2.8412,2.8502,2.844,2.8565,2.85,2.854,2.8559,2.8565,2.8573,2.8502,2.8617,2.8814,2.8835,2.8583,2.858,2.8578,0,2.7938,2.8054,2.8155,2.8184,2.8247,2.8295,2.8324,2.8373,2.8418,2.8478,2.8507,2.8578,2.8617,2.8673,2.8686,2.8639,2.8812,2.875,2.8824,2.8824,2.8861,2.8858,2.9066,2.8887,2.8887,2.8886,2.8886,0,2.8094,2.8183,2.8206,2.8268,2.8368,2.8374,2.8473,2.8499,2.8544,2.8612,2.8599,2.8664,2.8677,2.8746,2.8757,2.886,2.8877,2.889,2.8891,2.889,2.8889,2.8916,2.8906,2.8892,2.8891,2.889,2.8889,0,2.8234,2.8253,2.8362,2.8414,2.8429,2.8501,2.8546,2.8607,2.8626,2.8713,2.8734,2.8765,2.8845,2.8864,2.8959,2.8967,2.9089,2.9082,2.9071,2.907,2.9143,2.9136,2.9376,2.9408,2.9208,2.921,2.9211,0,2.8332,2.84,2.846,2.8504,2.8536,2.8608,2.8653,2.8663,2.8711,2.8779,2.8833,2.8911,2.8974,2.9104,2.9136,2.921,2.9204,2.9283,2.9215,2.9213,2.9206,2.9201,2.9209,2.9296,2.9298,2.93,2.9301,0,2.8504,2.8511,2.8576,2.8646,2.8701,2.8757,2.881,2.8847,2.8865,2.8921,2.9002,2.9052,2.915,2.9229,2.9304,2.9335,2.9323,2.9323,2.9344,2.9343,2.9334,2.9341,2.9106,2.9317,2.9315,2.9314,2.9313,2.9312,2.8627,2.8687,2.8739,2.8813,2.8854,2.8905,2.8965,2.8993,2.9061,2.9141,2.9144,2.9233,2.9288,2.9387,2.9424,2.9495,2.9471,2.9501,2.9509,2.9516,2.9523,2.9324,2.9509,2.9508,2.9508,2.9508,2.9507,0,2.8798,2.8832,2.89,2.8975,2.9034,2.9017,2.9075,2.9127,2.9205,2.9257,2.932,2.9415,2.9493,2.9532,2.9609,2.9659,2.9655,2.9679,2.9675,2.9683,2.954,2.9514,2.9681,2.9681,2.9681,2.9681,2.9681,2.9681,2.8895,2.8996,2.901,2.9133,2.9165,2.9252,2.9288,2.9335,2.9377,2.9484,2.9548,2.9573,2.9621,2.9702,2.9773,2.9783,2.9812,2.9839,2.9846,2.9711,2.9693,2.9676,2.9652,2.9845,2.9846,2.9983,2.9984,2.9985]},{"header":{"parameterUnit":"m.s-1","parameterCategory":1,"la1":30.2991,"la2":30.254,"lo1":-89.0895,"lo2":-89.0444,"dy":0.0017,"dx":0.0017,"nx":28,"ny":28,"refTime":"2024-10-14T09:00:00:Z","depth":0,"parameterNumber":3,"parameterNumberName":"V-component_of_WINDS"},"data":[0,0,0,0,0,0,0,0,0,0,0,0,0,0,0,0,0,0,0,0,0,0,0,0,0,0,0,0,0,0,0,0,0,0,0,0,0,0,0,0,0,0,0,0,0,0,0,0,0,0,0,0,0,0,0,0,0,0,2.0037,2.0039,0,2.0224,2.0226,2.0228,2.0239,2.0237,2.0235,2.0233,2.0427,2.0434,2.0441,0,0,0,0,0,0,0,0,0,0,0,0,0,1.9689,1.9696,2.0037,2.0039,2.0041,2.0223,2.0226,2.0228,2.024,2.0237,2.0235,2.0232,2.0424,2.0433,2.0441,0,0,0,0,0,0,0,0,0,0,0,0,0,1.9855,1.9698,2.0036,2.0069,2.0074,2.0223,2.0226,2.0229,2.024,2.0237,2.0234,2.0231,2.0421,2.0432,2.0442,2.0572,0,0,2.0475,2.048,0,0,0,0,0,0,0,0,1.9845,1.9867,2.0062,2.0067,2.0072,2.0205,2.0174,2.0344,2.0241,2.0177,2.0233,2.0229,2.0356,2.0371,2.0414,2.0581,2.059,2.0476,2.0483,2.0487,2.049,0,0,0,0,0,0,0,1.9834,1.9859,2.0111,2.0064,2.0071,2.0074,2.0094,2.0207,2.0282,2.0182,2.0184,2.0206,2.0358,2.0403,2.0418,2.0593,2.0476,2.0485,2.0492,2.0496,2.0873,2.0877,0,0,0,0,0,0,1.9816,1.985,2.0105,2.0116,1.9949,2.0083,2.0105,2.0166,2.0281,2.0295,2.0208,2.0205,2.0387,2.0406,2.0425,2.0583,2.0487,2.0497,2.0503,2.087,2.0874,2.0878,0,0,0,0,0,0,1.9808,1.9839,2.0097,1.9983,2.0017,2.0092,2.016,2.0171,2.0216,2.03,2.0314,2.0241,2.0385,2.041,2.0535,2.059,2.0502,2.0512,2.0865,2.0871,2.0876,2.0901,0,0,0,0,0,0,1.9798,1.9836,1.9886,1.9984,2.0023,2.0204,2.0164,2.0177,2.0235,2.0233,2.0334,2.0348,2.0384,2.0519,2.0545,2.0603,2.052,2.0861,2.0868,2.0874,2.0896,2.0907,2.0916,0,0,0,0,0,1.9786,1.9887,1.9889,1.9919,2.0087,2.0207,2.0229,2.0268,2.0239,2.029,2.0343,2.0345,2.0579,2.0532,2.0562,2.0623,2.0858,2.0866,2.0874,2.0891,2.0905,2.0916,0,0,0,0,0,0,1.9795,1.99,1.9904,2.0039,2.0114,2.0209,2.0275,2.0282,2.0367,2.0362,2.0407,2.043,2.0553,2.0601,2.0545,2.0754,2.0715,2.073,2.0718,2.0732,2.0742,2.0728,2.0529,0,0,0,0,0,1.9812,1.9901,1.9988,2.01,2.0137,2.0199,2.0253,2.0276,2.0356,2.0388,2.045,2.0528,2.0618,2.0678,2.0766,2.0902,2.0924,2.0959,2.097,2.0978,2.099,2.1063,2.108,2.0905,2.0905,2.0904,0,0,1.985,1.9918,1.9972,2.0103,2.0164,2.0254,2.0226,2.0323,2.0391,2.0403,2.0524,2.0572,2.0661,2.0792,2.0852,2.0835,2.1042,2.0988,2.0994,2.1002,2.1073,2.109,2.1104,2.091,2.0909,2.0908,0,0,1.9964,2.0025,2.0124,2.0184,2.0276,2.0316,2.0339,2.0433,2.0465,2.0587,2.0597,2.0678,2.0834,2.0897,2.0949,2.1083,2.1087,2.111,2.1164,2.1235,2.1249,2.1261,2.1308,2.1325,2.1122,2.1122,2.1122,0,2.0,2.0136,2.0174,2.027,2.0327,2.034,2.044,2.0497,2.0613,2.0652,2.0631,2.0825,2.0886,2.103,2.1062,2.1105,2.1132,2.11,2.1244,2.1257,2.1269,2.1314,2.1332,2.1125,2.1124,2.1124,2.1124,0,2.0174,2.0268,2.0337,2.0447,2.0511,2.0609,2.0661,2.0721,2.0738,2.078,2.0903,2.0976,2.1079,2.1114,2.1133,2.1261,2.1247,2.1234,2.1197,2.1287,2.133,2.1348,2.1128,2.1127,2.1126,2.1126,0,0,2.0302,2.0429,2.0453,2.0502,2.0603,2.0676,2.0773,2.0872,2.0923,2.1002,2.1084,2.1214,2.1202,2.1261,2.1286,2.1348,2.1448,2.1328,2.1331,2.1347,2.1592,2.16,2.162,2.145,2.1454,2.1457,2.1584,0,2.0426,2.06,2.0635,2.0785,2.0871,2.0884,2.0968,2.1038,2.108,2.1159,2.1205,2.1296,2.1274,2.1309,2.1371,2.1423,2.1498,2.1414,2.1527,2.1531,2.1504,2.1642,2.1653,2.1769,2.1601,2.1604,2.1606,0,2.0596,2.0677,2.0835,2.0921,2.0959,2.1034,2.1127,2.1202,2.1282,2.1307,2.1371,2.1389,2.1489,2.1446,2.1584,2.1526,2.1574,2.1606,2.1611,2.1624,2.1574,2.1658,2.1808,2.1825,2.1633,2.1631,2.1629,0,2.0672,2.082,2.0934,2.0975,2.1079,2.1132,2.1177,2.1253,2.131,2.139,2.1427,2.1518,2.1568,2.1638,2.1679,2.1644,2.1814,2.1774,2.1837,2.1836,2.1874,2.1871,2.2032,2.1905,2.1904,2.1904,2.1904,0,2.0808,2.0904,2.0969,2.1038,2.1145,2.1185,2.129,2.1335,2.1402,2.148,2.1496,2.1569,2.1619,2.1698,2.1731,2.184,2.1863,2.1885,2.1893,2.1884,2.1881,2.1917,2.1909,2.1909,2.1908,2.1907,2.1906,0,2.0911,2.0959,2.1082,2.117,2.1194,2.1269,2.1343,2.1411,2.1451,2.155,2.1575,2.1638,2.1733,2.178,2.1898,2.192,2.2042,2.2045,2.2015,2.2018,2.2078,2.2071,2.2268,2.2295,2.215,2.2151,2.2152,0,2.0995,2.1068,2.1163,2.1216,2.1262,2.1348,2.1405,2.1445,2.1504,2.1598,2.1654,2.1748,2.1827,2.1976,2.2033,2.2122,2.2127,2.2189,2.2141,2.2128,2.2127,2.2122,2.2129,2.2198,2.22,2.2201,2.2202,0,2.1138,2.1157,2.1238,2.1327,2.1394,2.1466,2.1537,2.158,2.1632,2.1696,2.1792,2.1852,2.1971,2.2065,2.2158,2.2204,2.2212,2.2216,2.2236,2.2227,2.2207,2.2218,2.2038,2.2212,2.2211,2.221,2.221,2.2209,2.1233,2.1299,2.1374,2.1464,2.1521,2.1586,2.1653,2.1701,2.1782,2.1881,2.19,2.2001,2.2076,2.2202,2.2251,2.233,2.2317,2.2345,2.2352,2.2358,2.236,2.2194,2.2347,2.2347,2.2347,2.2347,2.2346,0,2.1376,2.1425,2.1507,2.1605,2.1674,2.1674,2.1752,2.181,2.1899,2.1968,2.2043,2.2152,2.2242,2.2305,2.2396,2.2447,2.2452,2.2469,2.2466,2.2476,2.2368,2.2342,2.2463,2.2463,2.2463,2.2463,2.2463,2.2463,2.1459,2.1569,2.1596,2.1734,2.1782,2.1881,2.1925,2.1985,2.204,2.2161,2.2235,2.2275,2.2341,2.2436,2.2518,2.2534,2.2566,2.2583,2.2599,2.2497,2.2484,2.2473,2.2448,2.259,2.259,2.2701,2.2702,2.2703]}]]